Overview Statistics Trail Chart Weather Telemetry Raw packets
 

This is the latest recevied weather packets stored in our database for station/object KB1WCR. If no packets are shown the sender has not sent any weather packets the latest 10 day(s).

<< 90 91 92 93 94 95 96 >>
Time Temp. Humidity Pressure Rain* Wind** Luminosity Snow
1787752023 23.89° C 73% 1017.5 hPa 0 mm - 503 W/m² -
1787751718 23.33° C 74% 1017.6 hPa 0 mm - 493 W/m² -
1787751414 23.33° C 77% 1017.3 hPa 0 mm - 480 W/m² -
1787751108 22.78° C 76% 1017.3 hPa 0 mm - 465 W/m² -
1787750803 22.78° C 76% 1017.3 hPa 0 mm - 453 W/m² -
1787750498 22.22° C 80% 1017.5 hPa 0 mm - 441 W/m² -
1787750193 22.22° C 78% 1017.3 hPa 0 mm - 429 W/m² -
1787749889 21.67° C 81% 1017.6 hPa 0 mm - 416 W/m² -
1787749585 21.67° C 80% 1017.5 hPa 0 mm - 402 W/m² -
1787749280 21.11° C 83% 1017.4 hPa 0 mm - 391 W/m² -
1787748975 21.11° C 83% 1017.3 hPa 0 mm - 365 W/m² -
1787748669 20.56° C 84% 1017.4 hPa 0 mm - 298 W/m² -
1787748364 20.56° C 86% 1017.4 hPa 0 mm - 267 W/m² -
1787748061 20.56° C 86% 1017.4 hPa 0 mm - 241 W/m² -
1787747760 20.56° C 86% 1017.4 hPa 0 mm - 221 W/m² -
1787747455 20° C 88% 1017.3 hPa 0 mm - 197 W/m² -
1787747150 19.44° C 88% 1017.2 hPa 0 mm - 183 W/m² -
1787746846 19.44° C 90% 1017.3 hPa 0 mm - 171 W/m² -
1787746245 18.89° C 92% 1017.3 hPa 0 mm - 140 W/m² -
1787745939 18.33° C 94% 1017.2 hPa 0 mm - 129 W/m² -
1787745638 17.78° C 97% 1017.2 hPa 0 mm - 123 W/m² -
1787745333 17.22° C 99% 1017.3 hPa 0 mm - 116 W/m² -
1787745032 16.67° C 99% 1017.2 hPa 0 mm - 111 W/m² -
1787744728 16.11° C 99% 1017.3 hPa 0 mm - 99 W/m² -
1787744425 16.67° C 99% 1017.3 hPa 0 mm - 89 W/m² -

* Rain latest hour (hover to see other rain measurements)
** Current wind speed in m/s (hover to see current wind gust speed)